Location: Naloco
(16.5478°S, 37.1017°E)
Time: 01:48:57
(UTC+00:00)

CZ-2C R/B - Pass Details

Date: 13 August 2020
Orbit: 785 x 870 km, 98.3° (Epoch: 23 September)

Event Time Altitude Azimuth Distance (km) Brightness Sun altitude
Rises 17:19:22 0° 355° (N) 3,312 5.9 -28.3°
Reaches altitude 10° 17:21:49 10° 348° (NNW) 2,399 5.3 -28.9°
Maximum altitude 17:26:44 39° 280° (W) 1,237 4.0 -30.1°
Drops below altitude 10° 17:31:49 10° 212° (SSW) 2,474 5.4 -31.3°
Sets 17:34:23 0° 204° (SSW) 3,427 6.1 -31.9°
